STARLINK-36297

Last updated on Thu Mar 05 2026 00:02:08 GMT+0000 (Coordinated Universal Time)

1 67671U 26022Z 26063.04189487 .00354498 00000+0 22646-2 0 9991 2 67671 97.2837 96.7970 0000809 158.5022 201.6277 15.75348738 4665
UTC large
Height (km)
Speed (km/s)
/
Latitude / Longitude
Inclination (degrees)
Orbital Period (minutes)
Azimuth
Elevation
Range (km)
Doppler Factor

Next 0 passes for location: London (51.5072 / 0.1276)

Sorry there are no passes over London.